Weather History for Springfield, MO

Change the Weather History Date:

Monday, September 22, 2014

  Actual Average Record
Temperature  
Mean Temperature 62 °F 66 °F  
Max Temperature 75 °F 78 °F 93 °F (1937)
Min Temperature 48 °F 55 °F 33 °F (1995)
Degree Days  
Heating Degree Days 3 3  
Month to date heating degree days 28 23  
Since 1 July heating degree days 28 25  
Cooling Degree Days 0 4  
Month to date cooling degree days 144 148  
Year to date cooling degree days 1390 1334  
Growing Degree Days 12 (Base 50)    
Moisture  
Dew Point 49 °F    
Average Humidity 64    
Maximum Humidity 89    
Minimum Humidity 38    
Precipitation  
Precipitation 0.00 in 0.15 in 2.80 in (1893)
Month to date precipitation 5.00 3.41  
Year to date precipitation 26.97 33.52  
Snow  
Snow 0.00 in - - ()
Month to date snowfall 0.0  
Since 1 July snowfall 0.0  
Since 1 September snowfall 0.0  
Snow Depth 0.00 in    
Sea Level Pressure  
Sea Level Pressure 30.24 in    
Wind  
Wind Speed 4 mph (NE)    
Max Wind Speed 12 mph    
Max Gust Speed 17 mph    
Visibility 10 miles    
Events      
T = Trace of Precipitation, MM = Missing Value Source: NWS Daily Summary

Daily Weather History Graph

Daily Weather History Graph

Search for Another Location

Airport:

Trip Planner

Search our weather history database for the weather conditions in past years. The results will help you decide how hot, cold, wet, or windy it might be!

Date:

Astronomy

Sep. 22, 2014 Rise Set
Actual Time 7:01 AM CDT 7:10 PM CDT
Civil Twilight 6:35 AM CDT 7:36 PM CDT
Nautical Twilight 6:04 AM CDT 8:06 PM CDT
Astronomical Twilight 5:34 AM CDT 8:37 PM CDT
Moon 5:32 AM CDT (9/22) 6:17 PM CDT (9/22)
Length of Visible Light 13h 01m
Length of Day
12h 09m
Waning Crescent, 2% of the Moon is Illuminated
Sep 22
Waning Crescent
Sep 24
New
Oct 1
First Quarter
Oct 8
Full
Oct 15
Last Quarter

Hourly Weather History & Observations

Time (CDT) Temp. Dew Point Humidity Pressure Visibility Wind Dir Wind Speed Gust Speed Precip Events Conditions
12:52 AM 57.9 °F 48.9 °F 72% 30.19 in 10.0 mi NNE 4.6 mph - N/A   Clear
1:52 AM 55.0 °F 48.9 °F 80% 30.20 in 10.0 mi North 4.6 mph - N/A   Clear
2:52 AM 55.0 °F 48.9 °F 80% 30.20 in 10.0 mi Calm Calm - N/A   Clear
3:52 AM 52.0 °F 46.9 °F 83% 30.21 in 8.0 mi Calm Calm - N/A   Clear
4:52 AM 50.0 °F 46.9 °F 89% 30.23 in 10.0 mi Calm Calm - N/A   Clear
5:52 AM 50.0 °F 46.0 °F 86% 30.24 in 10.0 mi Calm Calm - N/A   Clear
6:52 AM 50.0 °F 46.0 °F 86% 30.26 in 10.0 mi Calm Calm - N/A   Clear
7:52 AM 52.0 °F 48.0 °F 86% 30.28 in 10.0 mi Calm Calm - N/A   Clear
8:52 AM 59.0 °F 51.1 °F 75% 30.29 in 10.0 mi NNE 6.9 mph - N/A   Clear
9:52 AM 62.1 °F 51.1 °F 67% 30.30 in 10.0 mi ENE 10.4 mph - N/A   Clear
10:52 AM 66.0 °F 50.0 °F 56% 30.30 in 10.0 mi Variable 6.9 mph - N/A   Clear
11:52 AM 68.0 °F 50.0 °F 52% 30.29 in 10.0 mi Calm Calm - N/A   Clear
12:52 PM 70.0 °F 50.0 °F 49% 30.27 in 10.0 mi East 4.6 mph - N/A   Clear
1:52 PM 72.0 °F 50.0 °F 46% 30.25 in 10.0 mi North 3.5 mph - N/A   Clear
2:52 PM 73.0 °F 48.9 °F 42% 30.24 in 10.0 mi ESE 8.1 mph - N/A   Clear
3:52 PM 73.9 °F 48.0 °F 40% 30.22 in 10.0 mi Calm Calm - N/A   Clear
4:52 PM 73.9 °F 48.0 °F 40% 30.22 in 10.0 mi NNE 6.9 mph - N/A   Clear
5:52 PM 73.0 °F 46.9 °F 39% 30.21 in 10.0 mi NE 5.8 mph - N/A   Clear
6:52 PM 70.0 °F 48.0 °F 46% 30.21 in 10.0 mi NE 5.8 mph - N/A   Clear
7:52 PM 66.0 °F 48.0 °F 52% 30.22 in 10.0 mi ENE 4.6 mph - N/A   Clear
8:52 PM 60.1 °F 50.0 °F 69% 30.23 in 10.0 mi NNE 5.8 mph - N/A   Clear
9:52 PM 62.1 °F 48.9 °F 62% 30.23 in 10.0 mi ENE 6.9 mph - N/A   Clear
10:52 PM 62.1 °F 50.0 °F 65% 30.23 in 10.0 mi East 8.1 mph - N/A   Clear
11:52 PM 55.9 °F 48.9 °F 77% 30.22 in 10.0 mi Calm Calm - N/A   Clear